Weather History for KAMW - April, 2012

Change the Weather History Date:

Sunday, April 29, 2012

  Actual Average Record
Temperature  
Mean Temperature 47 °F 54 °F  
Max Temperature 49 °F 66 °F 88 °F (2007)
Min Temperature 45 °F 43 °F 28 °F (2008)
Degree Days  
Heating Degree Days 18 11  
Month to date heating degree days 344 457  
Since 1 July heating degree days 5276 6613  
Cooling Degree Days 0 0  
Month to date cooling degree days 10 0  
Year to date cooling degree days 25 0  
Moisture  
Dew Point 45 °F    
Average Humidity 90    
Maximum Humidity 100    
Minimum Humidity 80    
Precipitation  
Precipitation 0.20 in 0.17 in 0.80 in (2006)
Month to date precipitation 3.27  
Sea Level Pressure  
Sea Level Pressure 30.09 in    
Wind  
Wind Speed 6 mph (East)    
Max Wind Speed 15 mph    
Max Gust Speed 20 mph    
Visibility 4 miles    
Events Rain    
T = Trace of Precipitation, MM = Missing Value Source: NWS Daily Summary

Daily Weather History Graph

Daily Weather History Graph

Search for Another Location

Airport or City:

Trip Planner

Search our weather history database for the weather conditions in past years. The results will help you decide how hot, cold, wet, or windy it might be!

Date:

Astronomy

Apr. 29, 2012 Rise Set
Actual Time 6:12 AM CDT 8:11 PM CDT
Civil Twilight 5:42 AM CDT 8:42 PM CDT
Nautical Twilight 5:05 AM CDT 9:19 PM CDT
Astronomical Twilight 4:25 AM CDT 9:59 PM CDT
Moon 12:58 PM CDT (4/29) 2:10 AM CDT (4/29)
Length of Visible Light 14h 59m
Length of Day
13h 59m
First Quarter, 53% of the Moon is Illuminated
Apr 29
First Quarter
May 5
Full
May 12
Last Quarter
May 20
New
May 28
First Quarter

Hourly Weather History & Observations

Time (CDT) Temp. Windchill Dew Point Humidity Pressure Visibility Wind Dir Wind Speed Gust Speed Precip Events Conditions
12:53 AM 46.9 °F - 44.1 °F 90% 30.17 in 4.0 mi ENE 4.6 mph - N/A   Overcast
1:18 AM 46.4 °F 42.9 °F 44.6 °F 93% 30.17 in 5.0 mi East 6.9 mph - N/A   Overcast
1:53 AM 46.9 °F - 44.1 °F 90% 30.17 in 5.0 mi East 5.8 mph - N/A   Overcast
2:27 AM 46.4 °F 42.9 °F 44.6 °F 93% 30.16 in 4.0 mi East 6.9 mph - N/A   Overcast
2:53 AM 46.9 °F - 44.1 °F 90% 30.16 in 4.0 mi East 6.9 mph - N/A   Overcast
3:53 AM 46.9 °F - 42.1 °F 83% 30.15 in 6.0 mi East 10.4 mph - N/A   Haze
4:53 AM 46.9 °F - 43.0 °F 86% 30.16 in 6.0 mi East 11.5 mph - N/A   Overcast
5:28 AM 44.6 °F 39.7 °F 42.8 °F 93% 30.14 in 4.0 mi East 9.2 mph 18.4 mph N/A   Overcast
5:53 AM 46.0 °F 39.9 °F 43.0 °F 89% 30.14 in 4.0 mi East 13.8 mph - N/A   Overcast
6:03 AM 46.4 °F 41.1 °F 42.8 °F 87% 30.14 in 4.0 mi East 11.5 mph - N/A   Overcast
6:21 AM 44.6 °F 39.2 °F 41.0 °F 87% 30.13 in 5.0 mi East 10.4 mph - N/A   Overcast
7:32 AM 44.6 °F 39.7 °F 41.0 °F 87% 30.16 in 4.0 mi East 9.2 mph - N/A   Overcast
7:53 AM 45.0 °F 40.1 °F 41.0 °F 86% 30.14 in 4.0 mi East 9.2 mph - N/A   Overcast
8:44 AM 46.4 °F 41.1 °F 42.8 °F 87% 30.14 in 5.0 mi ESE 11.5 mph - N/A   Haze
8:53 AM 46.9 °F - 42.1 °F 83% 30.15 in 5.0 mi ESE 10.4 mph - N/A   Haze
9:13 AM 46.4 °F 41.1 °F 41.0 °F 81% 30.14 in 5.0 mi ESE 11.5 mph - N/A   Haze
9:40 AM 46.4 °F 41.1 °F 42.8 °F 87% 30.13 in 5.0 mi East 11.5 mph 18.4 mph N/A   Haze
9:53 AM 46.9 °F - 42.1 °F 83% 30.14 in 5.0 mi ESE 8.1 mph 16.1 mph N/A   Haze
10:53 AM 46.9 °F - 43.0 °F 86% 30.12 in 5.0 mi East 10.4 mph - N/A   Overcast
12:53 PM 48.0 °F - 43.0 °F 83% 30.11 in 4.0 mi East 9.2 mph - N/A   Haze
1:43 PM 46.4 °F 41.9 °F 44.6 °F 93% 30.08 in 1.8 mi East 9.2 mph - 0.01 in Rain Light Rain
1:53 PM 46.9 °F - 45.0 °F 93% 30.08 in 1.5 mi East 9.2 mph - 0.01 in Rain Light Rain
2:08 PM 46.4 °F 41.9 °F 44.6 °F 93% 30.06 in 1.2 mi East 9.2 mph - 0.00 in   Overcast
2:23 PM 46.4 °F 41.5 °F 44.6 °F 93% 30.05 in 2.0 mi East 10.4 mph - 0.00 in   Overcast
2:53 PM 46.9 °F - 45.0 °F 93% 30.04 in 2.5 mi ENE 8.1 mph - 0.00 in   Overcast
3:31 PM 46.4 °F 42.9 °F 44.6 °F 93% 30.04 in 3.0 mi East 6.9 mph - N/A   Overcast
3:42 PM 46.4 °F 42.9 °F 44.6 °F 93% 30.04 in 2.5 mi East 6.9 mph - 0.01 in Rain Light Rain
3:53 PM 48.0 °F - 45.0 °F 89% 30.04 in 2.5 mi East 5.8 mph - 0.01 in Rain Light Rain
4:30 PM 48.2 °F - 46.4 °F 93% 30.04 in 1.5 mi ESE 4.6 mph - 0.06 in Rain Rain
4:53 PM 48.0 °F - 46.0 °F 93% 30.04 in 2.0 mi Calm Calm - 0.09 in Rain Light Rain
5:45 PM 48.2 °F - 46.4 °F 93% 30.03 in 1.8 mi ENE 3.5 mph - 0.04 in Rain Light Rain
5:53 PM 48.0 °F - 46.9 °F 96% 30.03 in 2.0 mi ENE 3.5 mph - 0.04 in Rain Light Rain
6:53 PM 48.9 °F - 46.9 °F 93% 30.01 in 2.5 mi East 3.5 mph - 0.03 in Rain Light Rain
7:07 PM 48.2 °F - 48.2 °F 100% 30.00 in 2.5 mi East 3.5 mph - 0.01 in Rain Light Rain
7:22 PM 48.2 °F - 48.2 °F 100% 30.00 in 3.0 mi SE 5.8 mph - 0.01 in Rain Light Rain
7:53 PM 48.9 °F - 48.0 °F 97% 30.01 in 3.0 mi Calm Calm - 0.02 in   Overcast
8:10 PM 48.2 °F - 46.4 °F 93% 30.00 in 5.0 mi Calm Calm - N/A   Overcast
8:35 PM 48.2 °F - 46.4 °F 93% 30.02 in 5.0 mi Calm Calm - N/A   Overcast
8:53 PM 48.9 °F - 46.9 °F 93% 30.01 in 4.0 mi Calm Calm - N/A   Overcast
10:53 PM 48.9 °F - 48.0 °F 97% 30.01 in 4.0 mi Calm Calm - N/A   Overcast
11:53 PM 48.9 °F - 48.0 °F 97% 30.00 in 3.0 mi North 3.5 mph - N/A   Overcast